Location: Chillicothe
(39.7950°N, 93.5520°W)
Time: 06:43:40
(UTC-06:00)

Altair - Pass Details

Date: 24 October 2019
Orbit: 1502 x 1682 km, 47.2° (Epoch: 16 November)

Event Time Altitude Azimuth Distance (km) Brightness Sun altitude
Rises 19:57:36 0° 287° (WNW) 4,897 11.5 -18.9°
Reaches altitude 10° 20:03:13 10° 262° (W) 3,928 10.8 -20.0°
Maximum altitude 20:07:09 13° 239° (WSW) 3,698 10.3 -20.8°
Drops below altitude 10° 20:11:06 10° 215° (SW) 3,935 10.0 -21.5°
Sets 20:16:49 0° 190° (S) 4,913 10.2 -22.6°
